QFA125 YSCB-YSSY

Flight info

Callsign QFA125
Flight time 0h 39m
Altitude 17000
Route CB W423 CULIN Y59 RIVET
Aircraft A333/H-SDE3GHIJ2J3J5M1RVWXY/LB2D1

Departure

Time 2026-05-06 09:55
Airport Canberra Airport (YSCB)

Arrival

Time 2026-05-06 10:34
Airport Sydney Kingsford Smith International Airport (YSSY)
Time Latitude Longitude Altitude Speed Heading
2026-05-06 09:22 -35.30590 149.18957 1872 ft 0 kts 206°
2026-05-06 09:40 -35.30587 149.18959 1872 ft 4 kts 206°
2026-05-06 09:40 -35.30559 149.18976 1873 ft 2 kts 206°
2026-05-06 09:41 -35.30549 149.18982 1873 ft 0 kts 206°
2026-05-06 09:41 -35.30536 149.18988 1873 ft 2 kts 182°
2026-05-06 09:41 -35.30521 149.18985 1873 ft 2 kts 155°
2026-05-06 09:41 -35.30510 149.18976 1873 ft 1 kts 131°
2026-05-06 09:42 -35.30506 149.18971 1872 ft 0 kts 129°
2026-05-06 09:44 -35.30516 149.18986 1873 ft 7 kts 129°
2026-05-06 09:45 -35.30571 149.19067 1875 ft 16 kts 131°
2026-05-06 09:45 -35.30591 149.19095 1875 ft 2 kts 130°
2026-05-06 09:45 -35.30615 149.19128 1876 ft 6 kts 129°
2026-05-06 09:45 -35.30624 149.19142 1876 ft 0 kts 130°
2026-05-06 09:46 -35.30632 149.19154 1877 ft 3 kts 130°
2026-05-06 09:47 -35.30658 149.19192 1877 ft 7 kts 132°
2026-05-06 09:47 -35.30722 149.19231 1878 ft 14 kts 171°
2026-05-06 09:47 -35.30853 149.19238 1878 ft 21 kts 179°
2026-05-06 09:47 -35.31008 149.19238 1878 ft 22 kts 180°
2026-05-06 09:48 -35.31164 149.19238 1878 ft 22 kts 179°
2026-05-06 09:48 -35.31326 149.19238 1875 ft 23 kts 179°
2026-05-06 09:48 -35.31491 149.19240 1875 ft 23 kts 180°
2026-05-06 09:48 -35.31658 149.19240 1875 ft 23 kts 180°
2026-05-06 09:49 -35.31784 149.19240 1875 ft 16 kts 180°
2026-05-06 09:49 -35.31874 149.19240 1875 ft 11 kts 180°
2026-05-06 09:49 -35.31939 149.19246 1875 ft 1 kts 166°
2026-05-06 09:49 -35.31941 149.19246 1875 ft 0 kts 163°
2026-05-06 09:50 -35.31943 149.19247 1875 ft 1 kts 162°
2026-05-06 09:50 -35.31967 149.19263 1875 ft 6 kts 145°
2026-05-06 09:50 -35.31991 149.19293 1876 ft 0 kts 124°
2026-05-06 09:53 -35.32001 149.19315 1876 ft 6 kts 114°
2026-05-06 09:54 -35.32013 149.19385 1877 ft 8 kts 89°
2026-05-06 09:54 -35.31984 149.19437 1879 ft 8 kts 27°
2026-05-06 09:54 -35.31839 149.19446 1879 ft 49 kts 360°
2026-05-06 09:54 -35.31225 149.19446 1882 ft 123 kts 360°
2026-05-06 09:55 -35.30183 149.19449 2082 ft 164 kts 360°
2026-05-06 09:55 -35.29107 149.19653 3004 ft 157 kts 12°
2026-05-06 09:55 -35.28112 149.20152 3840 ft 160 kts 22°
2026-05-06 09:55 -35.27097 149.20645 4322 ft 159 kts 356°
2026-05-06 09:56 -35.25956 149.20683 4706 ft 170 kts 357°
2026-05-06 09:56 -35.24708 149.20747 5045 ft 189 kts 358°
2026-05-06 09:56 -35.23329 149.20821 5490 ft 210 kts 358°
2026-05-06 09:56 -35.21817 149.20906 6072 ft 226 kts 359°
2026-05-06 09:57 -35.20194 149.21001 6656 ft 242 kts 359°
2026-05-06 09:57 -35.18445 149.21104 7231 ft 260 kts 359°
2026-05-06 09:57 -35.16586 149.21214 7928 ft 273 kts 359°
2026-05-06 09:57 -35.14694 149.21329 8846 ft 277 kts 359°
2026-05-06 09:58 -35.12748 149.21446 9767 ft 281 kts 359°
2026-05-06 09:58 -35.10797 149.21819 10532 ft 294 kts 15°
2026-05-06 09:58 -35.08845 149.22745 11021 ft 313 kts 18°
2026-05-06 09:58 -35.06764 149.23730 11667 ft 326 kts 17°
2026-05-06 09:59 -35.04649 149.24725 12569 ft 328 kts 17°
2026-05-06 09:59 -35.02516 149.25726 13428 ft 332 kts 17°
2026-05-06 09:59 -35.00344 149.26743 14248 ft 336 kts 17°
2026-05-06 09:59 -34.98161 149.27762 15064 ft 339 kts 16°
2026-05-06 10:00 -34.95960 149.28789 15864 ft 343 kts 16°
2026-05-06 10:00 -34.93746 149.29820 16619 ft 346 kts 16°
2026-05-06 10:00 -34.91494 149.30867 17120 ft 351 kts 16°
2026-05-06 10:00 -34.89161 149.31950 17030 ft 368 kts 16°
2026-05-06 10:01 -34.86715 149.33087 17106 ft 382 kts 17°
2026-05-06 10:01 -34.84198 149.34261 17081 ft 383 kts 17°
2026-05-06 10:01 -34.81729 149.35410 17068 ft 380 kts 17°
2026-05-06 10:01 -34.79250 149.36560 17081 ft 380 kts 17°
2026-05-06 10:02 -34.76771 149.37712 17078 ft 380 kts 17°
2026-05-06 10:02 -34.74466 149.39293 17064 ft 389 kts 34°
2026-05-06 10:02 -34.72643 149.41795 17078 ft 399 kts 54°
2026-05-06 10:02 -34.71394 149.44778 17080 ft 390 kts 60°
2026-05-06 10:03 -34.70197 149.47647 17063 ft 371 kts 59°
2026-05-06 10:03 -34.69017 149.50401 17076 ft 364 kts 58°
2026-05-06 10:03 -34.67845 149.53104 17085 ft 363 kts 58°
2026-05-06 10:03 -34.66663 149.55817 17094 ft 364 kts 58°
2026-05-06 10:04 -34.65471 149.58546 17088 ft 364 kts 58°
2026-05-06 10:04 -34.64298 149.61232 17085 ft 365 kts 58°
2026-05-06 10:04 -34.63110 149.63943 17088 ft 364 kts 58°
2026-05-06 10:04 -34.61914 149.66673 17087 ft 364 kts 58°
2026-05-06 10:05 -34.60720 149.69397 17085 ft 363 kts 58°
2026-05-06 10:05 -34.59544 149.72078 17087 ft 364 kts 58°
2026-05-06 10:05 -34.58342 149.74815 17083 ft 363 kts 58°
2026-05-06 10:05 -34.57164 149.77496 17080 ft 364 kts 58°
2026-05-06 10:06 -34.55968 149.80215 17074 ft 364 kts 58°
2026-05-06 10:06 -34.54765 149.82947 17078 ft 365 kts 58°
2026-05-06 10:06 -34.53582 149.85632 17075 ft 364 kts 58°
2026-05-06 10:06 -34.52420 149.88385 17070 ft 366 kts 64°
2026-05-06 10:07 -34.51862 149.91420 17078 ft 372 kts 84°
2026-05-06 10:07 -34.51601 149.94533 17079 ft 371 kts 75°
2026-05-06 10:07 -34.50719 149.97403 17068 ft 365 kts 59°
2026-05-06 10:07 -34.49514 150.00102 17083 ft 364 kts 57°
2026-05-06 10:08 -34.48241 150.02768 17070 ft 363 kts 56°
2026-05-06 10:08 -34.46946 150.05408 17073 ft 362 kts 55°
2026-05-06 10:08 -34.45652 150.08015 17080 ft 362 kts 55°
2026-05-06 10:08 -34.44354 150.10616 17079 ft 362 kts 55°
2026-05-06 10:09 -34.43034 150.13254 17087 ft 362 kts 55°
2026-05-06 10:09 -34.41746 150.15832 17075 ft 360 kts 55°
2026-05-06 10:09 -34.40453 150.18413 16647 ft 358 kts 55°
2026-05-06 10:09 -34.39168 150.20973 16009 ft 360 kts 55°
2026-05-06 10:10 -34.37875 150.23553 15811 ft 348 kts 55°
2026-05-06 10:10 -34.36648 150.26004 15848 ft 330 kts 55°
2026-05-06 10:10 -34.35488 150.28313 15762 ft 318 kts 54°
2026-05-06 10:10 -34.34339 150.30594 15418 ft 315 kts 55°
2026-05-06 10:11 -34.33210 150.32835 15049 ft 314 kts 54°
2026-05-06 10:11 -34.32076 150.35088 14700 ft 312 kts 55°
2026-05-06 10:11 -34.30947 150.37328 14329 ft 311 kts 55°
2026-05-06 10:11 -34.29821 150.39560 14010 ft 308 kts 55°
2026-05-06 10:12 -34.28721 150.41742 13668 ft 307 kts 55°
2026-05-06 10:12 -34.27644 150.43986 13314 ft 307 kts 63°
2026-05-06 10:12 -34.27175 150.46516 12946 ft 312 kts 89°
2026-05-06 10:12 -34.27613 150.49043 12626 ft 312 kts 115°
2026-05-06 10:13 -34.28882 150.51146 12285 ft 308 kts 141°
2026-05-06 10:13 -34.30735 150.52402 11930 ft 302 kts 167°
2026-05-06 10:13 -34.32786 150.52583 11587 ft 293 kts 193°
2026-05-06 10:13 -34.34615 150.51717 11255 ft 282 kts 220°
2026-05-06 10:14 -34.35901 150.49999 10926 ft 272 kts 244°
2026-05-06 10:14 -34.36738 150.47954 10621 ft 269 kts 248°
2026-05-06 10:14 -34.37557 150.45944 10292 ft 269 kts 246°
2026-05-06 10:14 -34.38406 150.43912 10062 ft 270 kts 248°
2026-05-06 10:15 -34.38834 150.41754 10081 ft 263 kts 273°
2026-05-06 10:15 -34.38380 150.39665 10029 ft 260 kts 300°
2026-05-06 10:15 -34.37130 150.38097 9996 ft 263 kts 327°
2026-05-06 10:15 -34.35377 150.37430 9961 ft 270 kts 354°
2026-05-06 10:16 -34.33516 150.37840 9917 ft 277 kts 21°
2026-05-06 10:16 -34.31914 150.39214 9892 ft 281 kts 38°
2026-05-06 10:16 -34.30429 150.40732 9856 ft 281 kts 36°
2026-05-06 10:16 -34.28884 150.42198 9811 ft 280 kts 34°
2026-05-06 10:17 -34.27379 150.43663 9755 ft 283 kts 42°
2026-05-06 10:17 -34.26327 150.45706 9696 ft 291 kts 70°
2026-05-06 10:17 -34.26128 150.48137 9664 ft 296 kts 96°
2026-05-06 10:17 -34.26498 150.50563 9635 ft 295 kts 95°
2026-05-06 10:18 -34.26284 150.52992 9560 ft 291 kts 68°
2026-05-06 10:18 -34.25238 150.55041 9437 ft 282 kts 42°
2026-05-06 10:18 -34.23845 150.56674 9332 ft 282 kts 47°
2026-05-06 10:18 -34.22965 150.58801 9211 ft 286 kts 75°
2026-05-06 10:19 -34.22897 150.61180 9105 ft 281 kts 94°
2026-05-06 10:19 -34.23078 150.63551 8990 ft 280 kts 94°
2026-05-06 10:19 -34.23262 150.65956 8897 ft 300 kts 93°
2026-05-06 10:19 -34.23450 150.68471 8789 ft 301 kts 93°
2026-05-06 10:20 -34.23643 150.71008 8633 ft 303 kts 93°
2026-05-06 10:20 -34.23839 150.73534 8376 ft 300 kts 93°
2026-05-06 10:20 -34.24035 150.76030 8121 ft 295 kts 94°
2026-05-06 10:20 -34.24229 150.78471 7869 ft 291 kts 94°
2026-05-06 10:21 -34.24426 150.80885 7618 ft 287 kts 94°
2026-05-06 10:21 -34.24620 150.83281 7344 ft 285 kts 94°
2026-05-06 10:21 -34.24818 150.85669 7008 ft 285 kts 94°
2026-05-06 10:21 -34.25012 150.88031 6691 ft 284 kts 94°
2026-05-06 10:22 -34.25209 150.90413 6324 ft 281 kts 94°
2026-05-06 10:22 -34.25402 150.92735 5997 ft 273 kts 94°
2026-05-06 10:22 -34.25589 150.94945 5837 ft 261 kts 94°
2026-05-06 10:22 -34.25780 150.97122 5607 ft 260 kts 94°
2026-05-06 10:23 -34.25972 150.99271 5360 ft 259 kts 94°
2026-05-06 10:23 -34.26171 151.01424 5111 ft 258 kts 94°
2026-05-06 10:23 -34.26371 151.03571 4945 ft 254 kts 94°
2026-05-06 10:23 -34.26569 151.05650 4954 ft 242 kts 94°
2026-05-06 10:24 -34.26758 151.07608 4930 ft 230 kts 94°
2026-05-06 10:24 -34.26946 151.09509 4944 ft 226 kts 94°
2026-05-06 10:24 -34.27132 151.11403 4956 ft 227 kts 94°
2026-05-06 10:24 -34.27319 151.13286 4944 ft 220 kts 94°
2026-05-06 10:25 -34.27501 151.15056 4987 ft 206 kts 94°
2026-05-06 10:25 -34.27681 151.16753 5007 ft 206 kts 94°
2026-05-06 10:25 -34.27749 151.18475 4783 ft 201 kts 76°
2026-05-06 10:25 -34.27117 151.19873 4530 ft 189 kts 38°
2026-05-06 10:26 -34.26019 151.20674 4309 ft 183 kts 24°
2026-05-06 10:26 -34.24895 151.21388 4055 ft 182 kts 24°
2026-05-06 10:26 -34.23764 151.22101 3685 ft 182 kts 24°
2026-05-06 10:26 -34.22652 151.22800 3304 ft 178 kts 24°
2026-05-06 10:27 -34.21550 151.23441 2960 ft 172 kts 22°
2026-05-06 10:27 -34.20488 151.24014 2940 ft 163 kts 18°
2026-05-06 10:27 -34.19380 151.23999 2956 ft 160 kts 347°
2026-05-06 10:27 -34.18278 151.23708 2963 ft 162 kts 349°
2026-05-06 10:28 -34.17166 151.23431 2951 ft 161 kts 349°
2026-05-06 10:28 -34.16066 151.23148 2955 ft 162 kts 348°
2026-05-06 10:28 -34.14955 151.22861 2954 ft 161 kts 348°
2026-05-06 10:28 -34.13902 151.22588 2933 ft 153 kts 348°
2026-05-06 10:29 -34.12866 151.22319 2958 ft 150 kts 348°
2026-05-06 10:29 -34.11824 151.22047 2959 ft 151 kts 348°
2026-05-06 10:29 -34.10734 151.21764 2869 ft 177 kts 348°
2026-05-06 10:29 -34.09457 151.21431 2596 ft 196 kts 348°
2026-05-06 10:30 -34.08179 151.21097 2321 ft 171 kts 349°
2026-05-06 10:30 -34.07129 151.20825 2117 ft 139 kts 350°
2026-05-06 10:30 -34.06245 151.20596 1957 ft 126 kts 350°
2026-05-06 10:30 -34.05386 151.20375 1781 ft 123 kts 351°
2026-05-06 10:31 -34.04546 151.20165 1614 ft 123 kts 352°
2026-05-06 10:31 -34.03699 151.19968 1455 ft 125 kts 353°
2026-05-06 10:31 -34.02838 151.19753 1296 ft 127 kts 349°
2026-05-06 10:31 -34.01981 151.19498 1139 ft 127 kts 350°
2026-05-06 10:32 -34.01119 151.19273 963 ft 127 kts 350°
2026-05-06 10:32 -34.00238 151.19054 756 ft 129 kts 350°
2026-05-06 10:32 -33.99361 151.18842 595 ft 129 kts 351°
2026-05-06 10:32 -33.98477 151.18608 419 ft 130 kts 348°
2026-05-06 10:33 -33.97591 151.18367 274 ft 130 kts 351°
2026-05-06 10:33 -33.96704 151.18143 110 ft 132 kts 348°
2026-05-06 10:33 -33.95812 151.17908 22 ft 126 kts 348°
2026-05-06 10:33 -33.95074 151.17715 23 ft 92 kts 348°
2026-05-06 10:34 -33.94526 151.17574 28 ft 60 kts 347°
2026-05-06 10:34 -33.94149 151.17476 20 ft 54 kts 348°
2026-05-06 10:34 -33.93835 151.17392 16 ft 26 kts 348°
2026-05-06 10:34 -33.93698 151.17358 16 ft 14 kts 347°
2026-05-06 10:35 -33.93599 151.17333 18 ft 14 kts 348°
2026-05-06 10:35 -33.93528 151.17329 20 ft 8 kts 25°
2026-05-06 10:35 -33.93493 151.17384 18 ft 8 kts 67°
2026-05-06 10:35 -33.93482 151.17429 17 ft 5 kts 75°
2026-05-06 10:36 -33.93469 151.17485 15 ft 7 kts 66°
2026-05-06 10:36 -33.93428 151.17508 16 ft 5 kts 358°
2026-05-06 10:36 -33.93396 151.17506 18 ft 4 kts 358°
2026-05-06 10:36 -33.93359 151.17499 19 ft 5 kts 350°
2026-05-06 10:37 -33.93307 151.17485 21 ft 11 kts 347°
2026-05-06 10:37 -33.93218 151.17464 23 ft 13 kts 348°
2026-05-06 10:37 -33.93130 151.17442 24 ft 12 kts 350°
2026-05-06 10:37 -33.93048 151.17421 25 ft 11 kts 346°
2026-05-06 10:38 -33.92988 151.17448 26 ft 9 kts 73°
2026-05-06 10:38 -33.92994 151.17531 26 ft 10 kts 101°
2026-05-06 10:38 -33.93028 151.17600 26 ft 10 kts 148°
2026-05-06 10:38 -33.93087 151.17621 25 ft 3 kts 166°
2026-05-06 10:39 -33.93096 151.17624 24 ft 0 kts 167°